CAPE
940 1471 2130 2125 2151 2134 2171 2073 2046 2218 2213 2209 2480 2333 2414 2456 2642 3150 3026 2663 2485 2715 2654 2237 2040 1474 1553 882 1646 1810 1787 1779 1633 1450 1185 1170 1508 1429 1550 1379 1401 1151 1383
1030 1302 2425 2490 2156 2000 1683 1494 1483 1525 2196 2258 2176 2171 2354 2241 2230 2580 2696 2467 2354 2583 2293 2173 1713 1855 1643 1491 1350 1752 1866 1577 1867 1353 1026 927 1486 1377 892 834 1420 1266 1399
1159 1195 1723 2384 1713 1445 1520 1413 1156 1173 1630 2210 2359 2237 2176 2177 2047 2217 2416 2303 2421 2653 2219 2012 1916 2050 1818 1627 1517 1420 1204 1381 1044 1067 1016 815 1114 1359 1244 640 981 1246 1470
1150 1348 1705 2086 2011 1564 1230 1343 1978 1808 1630 1653 2187 2159 2180 2425 2276 2142 2245 2331 2415 2713 2355 2208 2146 2004 1994 1753 1312 1231 1444 1750 1444 980 494 730 1057 1504 1282 1109 1087 1524 1287
1294 1419 1386 1925 1784 1986 2047 1886 1666 1955 1866 1617 1917 1978 1984 2300 2373 2346 2241 2201 2407 2304 2294 1949 1931 1881 1458 1536 1496 1719 1724 2182 1439 767 756 940 1207 1384 1383 1413 1011 574 612
945 1506 2106 1961 1983 2122 1922 1839 1916 1866 1969 1939 1942 2043 2175 2258 2340 2255 2097 2095 2267 2421 1869 1624 1451 1659 1695 1242 1937 2210 2121 1831 963 511 860 1217 701 879 1229 1461 1132 709 564
966 1589 1594 2336 2044 1875 1882 1940 1908 1839 2005 2153 2147 2130 2099 2109 2221 2264 2130 2095 1984 2281 2216 1704 1835 2095 2140 1811 1978 2333 1129 750 489 913 1020 1113 1234 1361 1631 758 1066 610 628
1022 1456 1455 1975 1879 1796 1721 1805 1820 1765 1767 1888 2057 1942 1965 2128 2102 2104 2291 2272 2140 2278 1972 1838 2014 2120 2056 1986 1817 2481 1814 1341 950 916 1067 1045 1541 1454 1585 1294 532 673 666
1008 1194 1357 1374 1454 1651 1566 1687 1749 1788 1837 1712 1806 1884 2049 2135 2044 2043 2420 1985 2161 2075 1834 1780 1820 1884 2023 1950 2050 3377 2256 1487 516 417 390 706 1813 1475 1617 943 676 752 982
841 1132 1263 1244 1301 1144 1307 1557 1582 1515 1591 1176 1494 1789 2044 2051 2014 2027 2569 2782 2125 2003 1776 1721 1727 1747 1704 1701 1870 2927 1969 1537 828 831 846 1173 1190 1328 1162 911 606 491 581
677 975 1123 1132 1082 998 1077 1294 1413 1376 1381 1512 1248 1684 1930 1469 1490 1519 2397 2579 2029 2025 2026 1881 1694 1679 1725 1806 1877 2013 1606 843 954 1007 1071 1656 1941 783 637 547 391 272 272
541 760 974 951 931 938 1069 1037 1105 793 605 834 947 1033 890 1089 1259 1470 1935 2452 1815 1928 2134 2114 2109 1882 1886 1268 1001 1915 1197 788 986 1201 1105 1800 2232 866 968 859 539 386 297
445 562 663 698 742 776 886 795 710 459 375 462 681 794 803 803 1389 1530 1806 1666 845 843 814 1079 1342 946 1208 1132 1314 984 1266 953 907 659 896 1855 1450 947 1249 1446 985 623 573
416 569 610 575 451 390 642 567 390 492 623 528 392 523 724 895 992 1150 1192 1223 1090 1135 943 756 1058 1274 1592 1704 1633 1431 1004 671 874 773 957 1924 1889 642 722 615 768 610 633
468 450 375 375 416 389 621 292 171 443 656 693 564 328 489 589 645 791 834 668 545 477 587 564 758 972 796 619 352 859 719 578 436 631 1017 1479 2116 1180 699 724 782 796 808
368 432 352 486 636 538 597 500 201 574 376 441 274 464 583 524 650 530 598 680 818 769 643 590 806 1115 965 270 486 499 536 500 592 556 744 1155 1899 2005 1204 904 846 873 834
467 468 583 529 487 694 692 384 326 479 97 533 661 611 464 577 418 323 684 648 970 1184 828 772 1014 1329 1066 554 508 525 473 402 375 433 769 706 1268 1740 1355 1316 1595 1371 976
297 255 141 656 674 780 785 472 396 269 210 575 672 718 520 261 311 250 420 648 946 981 928 539 806 685 718 691 612 470 596 473 465 609 736 799 786 931 1368 1889 2313 1979 1295
160 82 540 498 394 362 416 351 449 358 462 713 679 909 607 864 880 906 566 716 938 615 779 913 617 782 865 643 675 764 618 482 505 538 746 858 779 845 684 1098 2303 2313 1643
187 108 305 325 375 575 126 400 397 493 659 644 654 921 971 1119 1234 1220 780 818 944 989 906 941 745 503 722 421 495 454 549 647 530 666 768 947 856 864 862 913 998 1470 2255
48 132 1 0 251 654 323 121 296 447 653 878 722 1060 1146 1084 1189 1298 1372 728 586 516 614 1110 1014 913 1246 1164 659 701 465 501 548 563 650 632 808 903 1091 962 1022 967 1016
72 83 163 0 156 482 596 474 407 321 427 902 1230 1051 915 869 1235 1083 1117 377 690 871 1454 1018 920 659 644 702 852 434 301 142 229 441 630 666 700 769 947 1035 1087 1105 1170
130 182 233 274 264 275 643 568 886 604 701 952 1019 1125 997 1088 1210 1362 1099 903 727 694 813 931 1292 890 784 768 967 611 743 498 764 293 445 684 757 721 805 932 1053 1034 1113
91 270 344 428 339 219 417 510 843 790 680 718 875 980 1202 1368 1216 1066 1112 970 1007 374 597 543 1285 922 532 1325 1045 1125 1065 799 1004 487 379 450 326 497 682 783 761 900 1177
74 423 363 462 379 357 727 800 519 686 563 658 707 968 939 1127 1351 1381 1230 943 824 650 453 693 1460 1190 1660 1480 1605 1229 1082 870 1465 1074 853 276 424 548 811 801 706 941 1098
140 460 250 330 260 151 427 826 834 756 546 622 830 899 853 805 985 1271 1100 1031 676 744 596 1103 1434 1459 1467 1224 1361 1255 1222 1305 1568 1256 1023 1090 531 665 789 893 885 960 1142
CIN
-8 -3 0 0 0 0 0 -1 0 0 0 0 0 0 0 0 0 0 0 0 0 0 0 0 0 0 0 -7 0 0 0 0 0 0 0 0 0 0 0 0 0 0 0
-24 -4 0 0 0 0 0 0 0 0 0 0 0 0 0 0 0 0 0 0 0 0 0 0 0 0 0 0 0 0 0 0 0 0 0 0 0 0 0 -1 0 0 0
-21 -15 0 0 0 -3 0 -1 -7 -4 0 0 0 0 0 0 0 0 0 0 0 0 0 0 0 0 0 0 0 0 0 0 -2 0 0 -2 -2 0 0 -1 0 0 0
-23 -2 -1 0 0 0 -6 -3 0 0 0 0 -1 0 0 0 0 0 0 0 0 0 0 0 0 0 0 0 -1 -1 -2 0 0 -4 -29 -4 0 0 0 0 0 0 0
-4 -2 -2 0 0 0 0 0 0 0 0 0 0 0 0 0 0 0 0 0 0 0 0 0 0 0 0 -1 -3 -5 -1 0 -5 -27 -15 -4 -1 -1 0 0 0 -5 -10
-25 -1 0 0 0 0 0 0 0 0 0 0 0 0 0 0 0 0 0 0 0 0 0 -3 -14 -6 -5 -10 -3 -4 -1 -6 -34 -53 -22 -4 -3 0 0 0 0 -4 -9
-19 -1 -1 0 0 0 0 0 0 0 0 0 0 0 0 -1 0 0 0 0 0 0 0 -8 -15 -8 -4 -4 -4 -1 -21 -41 -78 -34 -12 -4 -3 0 0 -3 0 -2 -8
-38 -1 -1 0 0 0 0 0 0 0 0 0 0 0 0 0 0 0 0 0 0 0 0 -4 -8 -6 -10 -6 -7 -1 -10 -23 -62 -52 -16 -16 -3 0 0 0 -24 -7 -5
-43 -16 -1 -1 -1 0 0 0 0 0 0 0 0 0 0 0 0 0 0 -1 0 0 -1 -9 -15 -18 -19 -16 -14 -1 -5 -36 -122 -114 -102 -57 0 0 0 -5 -20 -9 0
-35 -27 -4 -1 -1 -3 0 0 0 0 0 0 0 0 0 0 0 0 0 0 0 -2 -12 -25 -29 -28 -34 -32 -18 -2 -10 -29 -87 -80 -86 -39 -12 -2 -2 -14 -32 -56 -38
-25 -28 -16 -16 -16 -13 0 -2 -1 -1 -1 0 -2 0 -2 -7 -10 -17 -2 0 -6 -20 -20 -33 -48 -45 -45 -38 -16 -10 -37 -71 -75 -82 -68 -11 0 -47 -56 -70 -111 -138 -138
-44 -41 -16 -22 -21 -13 -1 -4 -13 -27 -40 -16 -11 -12 -31 -30 -31 -25 -17 -7 -32 -59 -53 -33 -34 -44 -34 -78 -58 -25 -68 -81 -80 -61 -65 -11 -1 -56 -35 -49 -105 -143 -170
-58 -49 -26 -42 -37 -29 -13 -32 -43 -61 -60 -53 -22 -26 -36 -54 -34 -29 -25 -55 -124 -156 -113 -158 -120 -8 -112 -53 -110 -96 -55 -79 -106 -121 -92 -19 -33 -64 -28 -10 -53 -121 -141
-54 -46 -47 -46 -45 -35 -40 -52 -74 -66 -47 -46 -50 -55 -32 -37 -51 -48 -50 -80 -87 -89 -94 -9 -68 -82 -103 -75 -82 -44 -54 -85 -109 -122 -108 -18 -12 -142 -124 -143 -124 -166 -169
-55 -47 -72 -74 -43 -48 -46 -69 -31 -69 -46 -31 -58 -59 -58 -48 -97 -67 -51 -128 -71 -41 -89 -12 -28 -68 -24 -48 -55 -60 -52 -4 -180 -190 -127 -68 -11 -94 -167 -166 -161 -165 -174
-70 -59 -52 -62 -36 -70 -47 -36 -65 -50 -24 -36 -44 -12 -35 -68 -60 -48 -60 -82 -56 -59 -68 -16 -23 -45 -80 -31 -27 -49 -17 -19 -13 -129 -94 -139 -52 -30 -128 -180 -194 -195 -204
-54 -53 -23 -26 -21 -37 -32 -40 -46 -19 -48 -25 -48 -106 -93 -44 -37 -11 -46 -34 -47 -83 -84 -25 -21 -34 -35 -29 -6 -14 -34 -25 -43 -70 -56 -87 -171 -93 -143 -149 -110 -135 -205
-77 -50 -36 -27 -29 -31 -33 -8 -27 -31 -23 -35 -35 -33 -22 -57 -72 -80 -28 -34 -41 -69 -93 -35 -30 -24 -12 -26 -18 -14 -13 -39 -35 -70 -82 -97 -115 -257 -189 -116 -73 -96 -198
-71 -73 -46 -27 -24 -21 -18 -27 -32 -37 -45 -19 -31 -67 -19 -18 -24 -27 -14 -56 -26 -25 -31 -56 -30 -30 -45 -12 -17 -29 -25 -26 -30 -75 -89 -113 -139 -131 -289 -263 -119 -112 -187
-56 -70 -56 -23 -45 -48 -15 -12 -25 -41 -56 -59 -18 -24 -20 -21 -28 -31 -47 -42 -40 -66 -63 -24 -50 -10 -21 -15 -9 -7 -11 -37 -38 -97 -112 -110 -154 -132 -148 -93 -111 -276 -183
-14 -67 -1 0 -44 -43 -110 -81 -14 -22 -32 -67 -76 -60 -43 -34 -21 -33 -39 -32 -13 -12 -29 -45 -50 -20 -57 -39 -32 -19 -31 -26 -63 -68 -105 -133 -184 -188 -184 -160 -104 -135 -130
-62 -107 -91 0 -63 -58 -44 -35 -64 -90 -81 -60 -33 -32 -21 -16 -25 -43 -28 -85 -39 -50 -33 -52 -23 -68 -79 -69 -37 -8 -42 -95 -98 -102 -94 -84 -108 -138 -203 -216 -207 -179 -49
-50 -101 -90 -123 -67 -65 -38 -29 -62 -53 -72 -53 -50 -55 -71 -87 -35 -35 -32 -40 -16 -21 -19 -14 -39 -24 -39 -47 -57 -29 -19 -18 -55 -134 -108 -97 -111 -140 -130 -136 -166 -163 -90
-132 -125 -117 -97 -42 -59 -33 -20 -23 -25 -25 -28 -29 -31 -25 -39 -20 -27 -38 -50 -69 -88 -31 -10 -42 -41 -29 -47 -29 -59 -38 -29 -16 -65 -134 -128 -141 -138 -129 -154 -155 -88 -71
-140 -119 -94 -61 -39 -35 -48 -40 -26 -19 -36 -40 -29 -40 -26 -35 -55 -21 -16 -18 -66 -41 -22 -65 -29 -39 -44 -69 -65 -68 -65 -25 -35 -24 -37 -117 -86 -76 -62 -71 -82 -63 -69
-132 -127 -59 -73 -58 -47 -48 -50 -23 -2 -13 -48 -58 -43 -20 -35 -23 -17 -23 -22 -38 -49 -43 -21 -34 -39 -41 -77 -95 -81 -74 -46 -51 -44 -31 -33 -74 -58 -49 -48 -57 -61 -61
Wind_Speed
16 13 8 6 4 1 3 4 5 6 9 7 8 9 10 9 9 9 10 12 13 11 10 10 9 9 9 11 9 8 7 8 9 10 7 5 5 1 2 4 6 7 3
10 9 9 7 4 1 2 3 5 7 8 13 9 10 11 10 9 9 10 11 12 13 11 10 10 9 9 8 6 5 6 6 6 7 6 2 3 1 2 6 5 5 1
9 7 8 6 4 3 3 4 6 8 9 10 13 11 11 11 10 9 10 12 12 14 11 9 8 7 7 5 3 4 6 5 6 4 3 10 9 4 4 5 5 2 1
9 9 6 8 9 7 5 7 7 9 9 8 7 8 9 9 8 8 9 11 11 10 9 6 5 8 9 5 3 5 6 5 3 1 11 13 10 5 7 5 6 3 1
8 8 9 9 9 8 7 6 6 7 6 6 5 5 5 5 6 7 6 9 11 9 3 8 7 5 3 1 2 6 4 5 3 2 10 12 15 7 6 7 5 1 2
11 11 14 13 12 6 4 3 2 3 3 3 4 4 4 4 4 5 5 6 7 10 10 9 6 5 4 3 1 7 8 6 1 7 12 11 14 7 7 7 4 2 3
14 14 15 14 13 10 8 5 3 2 3 2 3 3 2 3 4 5 6 9 9 10 11 11 9 6 3 1 3 3 8 7 5 9 12 13 14 8 7 6 4 4 5
13 13 16 14 15 14 13 10 8 6 5 3 3 3 3 5 8 7 9 11 12 12 14 14 10 10 6 4 8 5 4 7 4 10 14 15 12 7 7 4 5 5 6
13 12 17 17 16 17 15 14 13 11 8 5 5 5 5 4 6 9 9 9 11 9 12 12 12 12 8 5 8 4 5 5 11 14 13 16 12 9 8 7 8 8 10
12 13 16 17 15 15 17 15 14 13 9 9 9 9 6 6 8 8 10 10 10 12 12 12 14 14 12 9 9 5 10 8 16 16 19 20 15 15 14 12 12 12 13
12 14 17 15 14 16 15 16 16 17 14 12 12 11 7 12 12 11 10 9 9 11 14 12 14 17 17 22 16 14 16 22 22 23 28 26 25 21 18 16 15 16 14
13 14 17 15 14 15 15 13 15 18 15 12 10 11 13 15 16 15 12 10 11 14 16 16 13 20 19 22 26 26 26 27 26 28 31 27 22 21 20 20 18 17 17
14 15 13 15 15 16 12 15 16 16 17 15 12 14 15 17 17 15 15 18 16 15 18 19 18 20 20 27 30 32 27 26 27 28 29 26 23 23 23 21 20 20 20
11 12 13 13 13 18 12 15 17 17 18 17 14 15 14 15 18 18 17 21 17 18 19 19 23 28 30 30 29 30 27 26 27 26 28 27 25 23 22 22 22 22 22
7 8 10 12 12 17 14 16 15 14 17 17 13 15 14 16 15 20 16 18 18 18 18 19 25 27 32 29 23 20 24 24 25 25 25 26 25 24 23 23 23 24 26
6 6 9 10 12 13 14 13 13 16 13 11 14 15 14 15 17 19 18 21 20 21 21 21 25 28 28 23 19 21 22 21 23 23 24 24 25 25 25 24 25 27 26
5 5 7 8 6 12 13 11 12 15 nan 10 11 10 14 15 13 17 17 22 23 24 25 26 27 25 23 23 19 20 20 20 19 20 21 23 23 24 26 26 26 26 26
2 4 4 3 2 5 8 9 8 9 7 8 10 10 13 13 15 15 18 21 22 22 24 25 24 22 23 20 20 19 20 16 17 19 18 21 21 19 23 28 26 26 26
4 nan 3 2 2 3 4 7 5 3 5 10 7 7 13 13 12 11 16 19 19 18 16 21 20 18 18 18 20 17 19 17 18 17 16 20 20 19 17 22 26 24 26
5 1 3 2 0 2 3 5 6 3 5 8 10 9 7 11 11 11 14 16 17 14 13 15 17 16 15 16 17 16 17 17 16 16 17 19 17 16 16 17 19 18 25
nan 6 nan nan 2 5 5 5 6 7 6 8 8 11 6 5 8 9 10 12 15 12 13 12 13 13 13 10 13 14 13 13 15 19 16 17 16 15 13 12 13 12 12
nan nan 7 nan 5 3 3 4 3 5 6 8 8 9 6 4 5 7 6 9 11 10 11 14 11 10 13 10 7 12 13 14 15 18 17 15 14 14 12 9 9 10 8
8 12 6 6 6 4 4 4 5 5 5 3 8 7 7 7 6 6 4 6 7 9 10 10 14 14 12 12 6 1 10 11 14 16 16 15 15 14 11 8 7 7 6
nan 12 11 7 6 4 5 2 1 3 3 5 3 6 8 7 8 6 6 6 7 5 8 9 13 11 8 10 12 6 3 5 6 13 14 14 12 13 9 7 6 6 4
nan 11 11 9 8 8 6 6 3 1 2 1 3 4 8 9 8 9 9 7 7 6 6 6 9 10 9 6 10 12 7 7 5 5 11 14 13 9 10 7 5 6 2
13 14 13 12 12 12 9 8 3 3 2 2 4 6 6 7 6 9 7 8 6 5 5 9 7 7 7 6 8 7 9 5 6 7 8 9 6 8 5 8 7 5 2
Wind_Direction
96 97 80 86 75 68 294 307 300 328 343 341 339 340 333 328 326 325 323 314 305 302 292 298 294 288 281 284 280 276 284 284 273 272 259 294 281 282 169 143 139 108 114
73 82 63 57 44 7 281 298 321 324 324 334 333 337 333 327 322 317 318 306 301 295 288 288 283 287 281 283 293 282 300 306 295 286 269 271 273 20 113 140 133 111 99
66 68 60 28 358 328 303 290 291 303 314 312 335 330 330 329 329 333 326 312 295 290 288 278 288 283 260 279 297 316 334 333 316 290 260 107 101 139 149 126 122 150 248
59 72 56 9 357 337 302 305 309 312 310 328 320 323 329 322 339 343 359 346 336 299 275 278 299 292 265 248 335 358 18 343 335 317 118 111 104 123 125 128 147 197 283
56 68 44 13 1 346 330 319 318 320 330 343 346 325 307 335 351 352 360 6 12 13 80 95 78 46 42 178 219 52 56 318 337 122 112 109 108 107 130 136 160 165 49
42 54 29 19 12 2 345 341 341 322 335 2 352 349 1 6 10 19 6 24 35 75 81 77 51 33 21 28 344 283 328 316 359 121 112 111 110 125 130 152 144 81 93
49 59 56 38 38 48 45 35 45 83 71 50 25 359 32 39 47 56 51 41 48 49 56 48 29 50 95 186 233 357 339 339 103 118 112 117 114 112 128 150 122 107 96
49 72 67 48 48 54 58 56 60 79 90 94 67 44 56 70 67 60 47 47 49 56 55 55 41 44 49 79 98 80 32 358 112 110 111 113 106 109 131 118 109 97 91
56 72 77 74 59 46 50 51 53 60 67 57 41 42 59 65 64 60 53 37 52 62 68 70 67 66 51 68 117 30 56 35 113 106 100 101 98 111 111 113 110 104 85
71 71 76 80 83 78 73 45 52 53 55 40 39 44 55 53 56 54 70 55 50 55 62 68 75 67 60 83 110 55 78 105 112 103 98 95 97 104 112 110 106 90 86
74 82 78 74 69 69 71 61 45 39 44 47 43 38 72 87 88 86 65 54 60 77 72 72 76 83 89 107 119 118 107 111 106 102 98 90 92 99 103 101 93 87 83
70 73 74 70 64 63 62 71 70 62 72 74 79 86 90 87 77 78 70 65 78 96 104 100 83 93 96 100 104 108 105 104 106 103 101 93 93 96 94 90 86 82 76
60 73 78 76 71 71 73 76 83 82 78 80 66 74 81 84 88 89 102 95 94 95 100 112 106 91 93 98 102 101 104 103 102 100 96 90 91 89 90 87 82 79 76
55 64 60 69 76 81 72 75 70 76 80 79 79 81 79 80 75 81 94 93 102 96 101 109 105 106 103 94 97 99 97 99 97 97 96 88 90 90 87 84 81 80 79
50 65 62 69 64 81 62 67 74 71 75 78 70 85 72 77 78 83 90 91 100 101 105 106 103 109 107 115 113 91 94 91 90 94 97 83 91 90 86 83 84 83 79
62 63 74 64 58 71 75 66 67 71 67 67 71 70 82 82 81 88 91 94 92 95 97 100 100 107 110 109 104 93 89 89 89 92 98 98 88 90 90 89 86 84 81
67 46 61 61 63 60 66 70 63 70 nan 68 77 61 72 81 81 88 90 88 96 101 100 100 105 114 117 114 102 101 91 83 90 88 101 106 101 88 90 90 88 85 83
317 71 86 75 24 62 57 59 68 58 69 83 70 77 76 77 76 82 93 93 93 96 100 102 109 114 106 106 106 103 93 80 76 92 103 108 107 107 99 92 89 85 84
259 nan 126 174 311 111 74 76 75 60 86 73 66 75 84 96 97 93 89 91 93 95 103 103 104 102 104 107 101 92 94 94 85 94 103 106 105 111 113 101 92 87 84
290 219 262 193 353 211 170 146 131 108 91 84 74 60 53 87 95 102 96 105 104 104 101 106 110 106 96 100 101 94 103 99 98 103 106 107 107 107 112 105 106 95 83
nan 274 nan nan 224 205 165 164 145 122 109 75 68 47 39 63 92 108 108 107 113 117 102 103 96 118 115 113 113 112 122 117 100 108 118 119 113 113 111 111 111 107 96
nan nan 230 nan 270 265 177 156 118 105 93 86 83 79 90 64 72 90 98 108 120 125 136 129 125 113 111 112 114 126 144 145 137 124 128 116 116 124 121 108 101 100 95
261 258 257 244 271 283 269 164 157 158 146 118 95 92 110 104 104 102 74 90 108 129 124 122 127 131 124 111 100 91 152 144 149 144 138 131 131 124 128 125 109 93 90
nan 256 266 247 243 247 280 231 102 76 36 69 88 100 94 85 73 69 107 96 99 113 128 137 129 134 117 128 121 122 129 164 162 162 151 143 135 126 118 131 126 106 88
nan 253 256 249 226 223 229 214 192 121 159 168 136 90 102 118 98 51 54 75 92 135 125 134 154 148 126 123 113 126 144 159 186 185 146 152 157 147 134 134 144 130 109
250 239 242 238 210 218 209 206 228 278 270 192 143 126 120 119 137 114 76 80 73 78 142 140 156 136 139 135 122 143 132 156 156 177 162 148 145 150 152 148 167 136 68